Weather History for Pinedale, WY

Change the Weather History Date:

Monday, August 11, 2014

  Actual Average (KBPI) Record (KBPI)
Temperature  
Mean Temperature 61 °F 61 °F  
Max Temperature 80 °F 81 °F 87 °F (2007)
Min Temperature 42 °F 42 °F 28 °F (1980)
Degree Days  
Heating Degree Days 4 4  
Month to date heating degree days 40  
Since 1 June heating degree days 462  
Since 1 July heating degree days 157  
Cooling Degree Days 0 1  
Month to date cooling degree days 11  
Year to date cooling degree days 35  
Since 1 June cooling degree days 35  
Growing Degree Days 11 (Base 50)    
Moisture  
Dew Point 39 °F    
Average Humidity 56    
Maximum Humidity 100    
Minimum Humidity 16    
Precipitation  
Precipitation 0.00 in 0.02 in 0.20 in (1993)
Month to date precipitation 0.25  
Year to date precipitation 4.22  
Sea Level Pressure  
Sea Level Pressure 30.44 in    
Wind  
Wind Speed 5 mph (WNW)    
Max Wind Speed 15 mph    
Max Gust Speed 22 mph    
Visibility 10 miles    
Events Thunderstorm    
T = Trace of Precipitation, MM = Missing Value Source: NWS Daily Summary

Daily Weather History Graph

Daily Weather History Graph

Search for Another Location

Airport:

Trip Planner

Search our weather history database for the weather conditions in past years. The results will help you decide how hot, cold, wet, or windy it might be!

Date:

Astronomy

Aug. 11, 2014 Rise Set
Actual Time 6:21 AM MDT 8:26 PM MDT
Civil Twilight 5:50 AM MDT 8:57 PM MDT
Nautical Twilight 5:12 AM MDT 9:35 PM MDT
Astronomical Twilight 4:30 AM MDT 10:16 PM MDT
Moon 8:53 PM MDT (8/11) 7:33 AM MDT (8/11)
Length of Visible Light 15h 07m
Length of Day
14h 05m
Full, 98% of the Moon is Illuminated
Aug 11
Full
Aug 17
Last Quarter
Aug 25
New
Sep 2
First Quarter
Sep 8
Full

Hourly Weather History & Observations

Time (MDT) Temp. Windchill Dew Point Humidity Pressure Visibility Wind Dir Wind Speed Gust Speed Precip Events Conditions
12:15 AM 51.8 °F - 42.8 °F 71% 30.43 in 10.0 mi Calm Calm - N/A   Clear
12:35 AM 50.0 °F - 44.6 °F 82% 30.44 in 10.0 mi West 5.8 mph - N/A   Clear
12:55 AM 48.2 °F - 42.8 °F 82% 30.44 in 10.0 mi WNW 5.8 mph - N/A   Clear
1:15 AM 50.0 °F - 42.8 °F 76% 30.44 in 10.0 mi NW 5.8 mph - N/A   Clear
1:35 AM 48.2 °F - 42.8 °F 82% 30.44 in 10.0 mi NW 5.8 mph - N/A   Clear
2:15 AM 44.6 °F 41.4 °F 42.8 °F 93% 30.44 in 10.0 mi West 5.8 mph - N/A   Clear
2:35 AM 44.6 °F 41.4 °F 42.8 °F 93% 30.44 in 10.0 mi WNW 5.8 mph - N/A   Clear
2:55 AM 46.4 °F 44.3 °F 42.8 °F 87% 30.45 in 10.0 mi WNW 4.6 mph - N/A   Clear
3:15 AM 44.6 °F 42.2 °F 42.8 °F 93% 30.45 in 10.0 mi WNW 4.6 mph - N/A   Clear
3:35 AM 44.6 °F 41.4 °F 42.8 °F 93% 30.45 in 10.0 mi WNW 5.8 mph - N/A   Clear
3:55 AM 42.8 °F 39.3 °F 42.8 °F 100% 30.45 in 10.0 mi WNW 5.8 mph - N/A   Scattered Clouds
4:15 AM 42.8 °F 39.3 °F 42.8 °F 100% 30.45 in 10.0 mi WNW 5.8 mph - N/A   Clear
4:35 AM 42.8 °F 39.3 °F 41.0 °F 93% 30.45 in 10.0 mi West 5.8 mph - N/A   Clear
4:55 AM 42.8 °F 38.6 °F 41.0 °F 93% 30.45 in 10.0 mi West 6.9 mph - N/A   Clear
5:15 AM 42.8 °F 38.0 °F 41.0 °F 93% 30.45 in 10.0 mi WNW 8.1 mph - N/A   Clear
5:35 AM 42.8 °F 38.6 °F 41.0 °F 93% 30.45 in 10.0 mi WNW 6.9 mph - N/A   Clear
5:55 AM 42.8 °F 39.3 °F 41.0 °F 93% 30.45 in 10.0 mi WNW 5.8 mph - N/A   Clear
6:15 AM 42.8 °F 39.3 °F 41.0 °F 93% 30.46 in 10.0 mi WNW 5.8 mph - N/A   Clear
6:35 AM 42.8 °F 39.3 °F 41.0 °F 93% 30.46 in 10.0 mi WNW 5.8 mph - N/A   Clear
6:55 AM 44.6 °F 40.2 °F 41.0 °F 87% 30.47 in 10.0 mi WNW 8.1 mph - N/A   Clear
7:15 AM 44.6 °F 40.7 °F 41.0 °F 87% 30.47 in 10.0 mi West 6.9 mph - N/A   Clear
7:35 AM 48.2 °F - 41.0 °F 76% 30.47 in 10.0 mi WNW 8.1 mph - N/A   Clear
7:55 AM 50.0 °F - 41.0 °F 71% 30.47 in 10.0 mi WNW 6.9 mph - N/A   Clear
8:35 AM 55.4 °F - 42.8 °F 63% 30.48 in 10.0 mi WNW 8.1 mph - N/A   Clear
8:55 AM 59.0 °F - 44.6 °F 59% 30.48 in 10.0 mi NW 5.8 mph - N/A   Clear
9:15 AM 62.6 °F - 46.4 °F 55% 30.48 in 10.0 mi WNW 4.6 mph - N/A   Clear
9:35 AM 64.4 °F - 44.6 °F 49% 30.48 in 10.0 mi West 3.5 mph - N/A   Clear
9:55 AM 68.0 °F - 41.0 °F 37% 30.47 in 10.0 mi Calm Calm - N/A   Clear
10:15 AM 69.8 °F - 39.2 °F 33% 30.47 in 10.0 mi Calm Calm - N/A   Clear
10:35 AM 73.4 °F - 35.6 °F 25% 30.47 in 10.0 mi East 4.6 mph - N/A   Clear
10:55 AM 73.4 °F - 35.6 °F 25% 30.47 in 10.0 mi ESE 3.5 mph - N/A   Clear
11:15 AM 75.2 °F - 37.4 °F 25% 30.47 in 10.0 mi Calm Calm - N/A   Clear
11:35 AM 75.2 °F - 35.6 °F 24% 30.46 in 10.0 mi East 4.6 mph - N/A   Clear
11:55 AM 75.2 °F - 35.6 °F 24% 30.46 in 10.0 mi South 3.5 mph - N/A   Clear
12:15 PM 77.0 °F - 33.8 °F 21% 30.45 in 10.0 mi ESE 3.5 mph - N/A   Clear
12:35 PM 77.0 °F - 33.8 °F 21% 30.45 in 10.0 mi Calm Calm - N/A   Clear
12:55 PM 77.0 °F - 33.8 °F 21% 30.45 in 10.0 mi SSW 8.1 mph - N/A   Mostly Cloudy
1:15 PM 75.2 °F - 35.6 °F 24% 30.44 in 10.0 mi North 3.5 mph - N/A   Overcast
1:35 PM 78.8 °F - 33.8 °F 20% 30.44 in 10.0 mi WSW 5.8 mph - N/A   Mostly Cloudy
2:35 PM 78.8 °F - 32.0 °F 18% 30.42 in 10.0 mi WSW 10.4 mph - N/A   Mostly Cloudy
2:55 PM 77.0 °F - 32.0 °F 19% 30.42 in 10.0 mi East 3.5 mph - N/A Thunderstorm Mostly Cloudy
3:15 PM 77.0 °F - 32.0 °F 19% 30.41 in 10.0 mi ENE 4.6 mph - N/A   Mostly Cloudy
4:15 PM 78.8 °F - 32.0 °F 18% 30.40 in 10.0 mi North 5.8 mph - N/A   Scattered Clouds
4:55 PM 80.6 °F - 32.0 °F 17% 30.39 in 10.0 mi Calm Calm - N/A   Clear
5:35 PM 80.6 °F - 32.0 °F 17% 30.38 in 10.0 mi WNW 5.8 mph - N/A   Clear
5:55 PM 80.6 °F - 30.2 °F 16% 30.38 in 10.0 mi WNW 10.4 mph - N/A   Clear
6:15 PM 77.0 °F - 39.2 °F 26% 30.39 in 10.0 mi WNW 15.0 mph 21.9 mph N/A   Scattered Clouds
6:35 PM 73.4 °F - 41.0 °F 31% 30.38 in 10.0 mi WNW 13.8 mph - N/A   Clear
6:55 PM 73.4 °F - 41.0 °F 31% 30.38 in 10.0 mi West 11.5 mph - N/A   Clear
7:15 PM 69.8 °F - 42.8 °F 38% 30.39 in 10.0 mi WNW 5.8 mph - N/A   Clear
7:35 PM 66.2 °F - 42.8 °F 43% 30.38 in 10.0 mi NNW 8.1 mph - N/A   Clear
7:55 PM 64.4 °F - 46.4 °F 52% 30.38 in 10.0 mi NW 4.6 mph - N/A Thunderstorm Clear